This is the latest recevied weather packets stored in our database for station/object OE-11344. If no packets are shown the sender has not sent any weather packets the latest 10 day(s).
| Time | Temp. | Humidity | Pressure | Rain* | Wind** | Luminosity | Snow |
|---|---|---|---|---|---|---|---|
| 1787922311 | 24.44° C | 36% | 851.9 hPa | 0 mm | - | 290 W/m² | - |
| 1787921712 | 24.44° C | 36% | 852 hPa | 0 mm | - | 217 W/m² | - |
| 1787920884 | 24.44° C | 36% | 852.2 hPa | 0 mm | - | 260 W/m² | - |
| 1787920512 | 24.44° C | 37% | 852.2 hPa | 0 mm | - | 272 W/m² | - |
| 1787919912 | 24.44° C | 38% | 852.1 hPa | 0 mm | - | 302 W/m² | - |
| 1787919084 | 24.44° C | 36% | 852.2 hPa | 0 mm | - | 302 W/m² | - |
| 1787918711 | 24.44° C | 35% | 852.1 hPa | 0 mm | - | 368 W/m² | - |
| 1787918111 | 24.44° C | 35% | 851.9 hPa | 0 mm | - | 272 W/m² | - |
| 1787917284 | 24.44° C | 36% | 852 hPa | 0 mm | - | 344 W/m² | - |
| 1787916912 | 25° C | 34% | 851.8 hPa | 0 mm | - | 537 W/m² | - |
| 1787916312 | 25° C | 34% | 851.9 hPa | 0 mm | - | 592 W/m² | - |
| 1787915484 | 24.44° C | 37% | 852 hPa | 0 mm | - | 459 W/m² | - |
| 1787915112 | 24.44° C | 35% | 852.1 hPa | 0 mm | - | 447 W/m² | - |
| 1787914512 | 24.44° C | 36% | 851.9 hPa | 0 mm | - | 676 W/m² | - |
| 1787913685 | 25° C | 34% | 851.7 hPa | 0 mm | - | 791 W/m² | - |
| 1787913312 | 25° C | 34% | 851.6 hPa | 0 mm | - | 761 W/m² | - |
| 1787912712 | 24.44° C | 33% | 851.4 hPa | 0 mm | - | 761 W/m² | - |
| 1787911885 | 25° C | 33% | 851.6 hPa | 0 mm | - | 707 W/m² | - |
| 1787911512 | 25° C | 34% | 851.7 hPa | 0 mm | - | 743 W/m² | - |
| 1787910911 | 24.44° C | 35% | 851.7 hPa | 0 mm | - | 719 W/m² | - |
| 1787910085 | 24.44° C | 33% | 852.2 hPa | 0 mm | - | 713 W/m² | - |
| 1787909711 | 24.44° C | 34% | 852 hPa | 0 mm | - | 688 W/m² | - |
| 1787909112 | 24.44° C | 35% | 852.4 hPa | 0 mm | - | 670 W/m² | - |
| 1787908284 | 24.44° C | 34% | 852.8 hPa | 0 mm | - | 664 W/m² | - |
| 1787907912 | 23.89° C | 34% | 852.7 hPa | 0 mm | - | 634 W/m² | - |
* Rain latest hour (hover to see other rain measurements)
** Current wind speed in m/s (hover to see current wind gust speed)